Tracking 25689 objects as of 7-Jul-2022
HD Live streaming from Space Station
objects crossing your sky now

FENGYUN 1C DEB

Track FENGYUN 1C DEB now!
10-day predictions


NORAD ID: 32241
Int'l Code: 1999-025CWP
Perigee: 726.2 km
Apogee: 977.0 km
Inclination: 99.1 °
Period: 101.8 minutes
Semi major axis: 7222 km
RCS: 0.0127 m2 (small)
Launch date: May 10, 1999
Source: People's Republic of China (PRC)
Launch site: Taiyaun Space Center, China (TSC)

Note: This is SATELLITE DEBRIS
aabbcc
Your satellite tracking list
Your tracking list is empty




NASA's NSSDC Master Catalog

Two Line Element Set (TLE):
1 32241U 99025CWP 22187.66647513  .00001187  00000-0  55791-3 0  9992
2 32241  99.0567 164.9118 0173655 204.0334 155.2663 14.14365460760019
Source of the keplerian elements: AFSPC